Cloud_Cover
100 48 64 27 27 80 97 100 100 100 100 93 82 12 12 10 18 14 10 6 2 0 0 0 0 0 0 0 0 0 0 0 0 0 0 0 0 0 0 0 0 0 0 0 0 0 0
100 100 99 84 59 100 99 100 100 100 100 100 69 31 19 17 12 11 11 11 0 0 2 0 0 0 0 0 0 0 0 0 0 0 0 0 0 0 0 0 0 0 0 0 0 0 0
100 100 100 100 90 51 76 71 100 100 100 24 0 2 8 14 9 10 3 0 0 5 2 0 0 0 0 0 0 0 0 0 0 0 0 0 0 0 0 0 0 0 0 0 0 0 0
100 100 100 100 100 59 100 88 91 100 100 75 5 6 8 14 14 3 0 3 0 0 0 0 0 0 0 0 0 1 1 0 0 0 0 0 0 0 0 0 0 0 0 0 0 0 0
100 100 100 100 100 100 100 98 41 27 11 18 5 5 6 2 4 2 0 0 0 0 0 0 0 0 0 0 0 4 5 0 0 0 0 5 0 0 0 0 0 0 0 0 0 0 0
100 100 100 100 100 100 100 100 100 88 100 100 63 5 35 5 21 5 5 5 0 0 0 0 0 2 0 0 0 0 5 2 0 0 0 0 0 0 0 0 0 0 0 0 0 0 0
100 100 100 100 100 100 100 100 100 100 100 100 100 100 100 41 17 5 5 5 5 0 0 0 0 0 0 0 3 5 0 0 0 0 0 0 0 0 0 0 0 0 0 0 0 0 0
100 100 100 100 100 100 100 100 100 100 100 100 81 56 65 82 54 34 18 36 5 5 10 4 1 0 2 0 0 0 0 0 0 0 0 0 0 0 0 0 0 2 1 2 0 0 0
100 93 86 96 100 100 100 100 100 100 100 100 100 100 100 100 100 100 100 93 66 22 13 7 5 5 0 0 2 1 0 0 0 0 0 0 1 0 0 2 5 5 5 5 1 0 0
88 99 95 100 100 100 100 100 100 100 100 100 100 100 98 96 100 100 100 100 100 100 87 66 57 41 5 4 5 5 4 0 0 0 0 0 5 5 0 5 5 5 5 5 5 0 0
100 100 100 100 100 100 100 100 100 100 100 100 100 100 100 100 100 100 100 100 100 99 96 97 90 9 14 8 23 5 5 5 0 0 0 0 0 0 0 5 5 5 5 5 63 13 0
100 100 100 97 100 100 100 100 100 100 100 100 100 100 100 100 100 100 100 100 100 94 98 100 95 85 44 67 26 5 5 5 0 1 0 0 0 2 2 5 24 21 78 29 45 100 5
100 100 100 100 100 100 100 100 100 100 100 100 98 100 100 100 100 100 100 100 100 100 100 99 97 100 99 99 63 71 5 5 5 5 5 5 5 5 5 39 21 100 58 100 100 13 5
100 100 100 100 100 100 100 100 100 100 100 100 100 100 100 100 100 100 100 100 100 100 100 78 55 100 100 85 100 100 85 37 5 5 5 15 5 5 5 5 18 73 100 7 5 5 6
100 100 100 93 100 100 100 100 100 100 100 100 100 100 100 100 100 100 100 100 100 100 100 94 84 87 100 100 49 21 92 71 17 11 5 5 75 5 5 5 5 5 38 55 5 98 78
100 100 100 100 100 100 100 100 100 9 7 42 90 100 100 100 100 100 100 100 100 100 100 100 100 100 100 100 99 97 87 73 47 70 84 47 95 49 5 5 5 5 5 5 5 5 100
95 91 96 100 100 64 100 100 100 66 86 5 10 9 37 98 100 100 100 100 100 100 100 95 100 91 100 100 98 100 100 79 100 100 49 5 6 32 5 6 3 5 5 19 30 5 30
96 28 100 100 100 100 100 100 67 78 64 44 56 90 100 100 88 93 100 100 100 100 100 100 100 100 100 100 100 100 100 100 78 49 7 5 5 15 5 5 5 0 0 15 100 98 5
78 8 76 70 98 100 96 72 20 20 100 100 100 10 38 84 85 100 99 82 100 98 97 92 89 96 80 48 49 92 66 17 5 3 0 0 2 4 24 3 0 0 0 0 2 17 86
100 11 22 43 29 15 9 70 95 8 22 93 92 51 6 93 50 67 100 100 91 100 57 26 14 51 5 5 5 1 5 1 0 0 0 0 4 0 5 2 2 1 0 0 0 0 0
100 96 82 6 5 56 97 100 99 53 84 60 75 22 22 39 100 100 100 100 100 100 100 100 93 59 15 65 96 82 48 5 5 5 5 5 5 5 47 5 5 5 1 0 0 0 0
100 100 100 48 46 18 5 5 5 30 21 100 100 100 100 100 100 100 100 100 100 100 100 100 100 100 100 100 100 100 100 92 5 5 5 5 4 5 59 8 4 3 47 0 0 0 0
100 80 57 82 5 6 5 70 5 44 100 84 58 92 90 41 90 100 100 100 100 100 100 100 100 100 100 100 100 100 20 5 5 8 7 4 0 5 5 5 0 6 28 2 0 0 0
100 100 87 46 5 100 8 5 60 91 100 97 72 59 78 26 93 100 100 100 100 100 100 100 100 100 100 100 100 100 100 100 100 100 70 5 5 5 5 5 4 26 5 4 0 1 0
100 100 38 100 100 15 56 100 100 100 100 100 100 100 96 100 100 100 100 100 100 100 100 89 100 100 100 100 100 100 100 100 92 100 100 100 96 27 56 5 1 0 8 5 7 5 0
100 98 92 5 5 98 68 5 98 100 100 100 100 100 100 100 100 100 100 100 100 100 100 100 100 100 100 100 98 99 99 47 99 100 100 100 53 28 65 89 4 1 8 97 75 5 55
5 14 38 13 14 29 44 74 93 25 98 100 100 99 100 100 100 100 99 100 100 100 100 100 100 100 100 100 100 100 100 100 100 85 100 100 100 57 12 100 10 5 23 84 5 45 12
5 12 58 67 98 77 11 33 42 97 98 95 93 99 100 99 91 73 99 85 86 100 100 100 100 100 100 100 100 100 66 28 6 13 64 95 98 52 93 100 73 92 81 40 12 6 36
71 92 99 84 9 6 5 5 5 37 100 95 95 94 100 100 69 85 100 100 100 100 100 100 92 100 100 100 100 100 70 100 99 67 100 100 100 100 100 93 100 100 99 96 69 68 64